CW1102 Weather Reports


Display with metric or nautical units.
time (UTC)temp
F
wind
direction
speed
MPH
gust
MPH
rain 1hr
in
rain 24hr
in
rain mn
in
humidity
%
barometer
mb
20210803204708 93 288 1.0 3.0 0.00 0.00 0.00 16 1012.5
20210803203136 93 250 1.0 4.0 0.00 0.00 0.00 21 1012.7
20210803201727 92 292 1.0 3.0 0.00 0.00 0.00 25 1013.0
20210803194531 90 302 1.0 4.0 0.00 0.00 0.00 28 1013.4
20210803193052 89 344 1.0 3.0 0.00 0.00 0.00 30 1013.5
20210803191633 87 280 0.0 2.0 0.00 0.00 0.00 37 1013.8
20210803190047 87 296 0.0 2.0 0.00 0.00 0.00 37 1014.2
20210803184629 85 41 0.0 2.0 0.00 0.00 0.00 38 1014.4
20210803183045 83 277 0.0 2.0 0.00 0.00 0.00 39 1014.5
20210803181514 81 280 0.0 3.0 0.00 0.00 0.00 44 1014.8
20210803180007 79 260 1.0 2.0 0.00 0.00 0.00 47 1014.9
20210803174658 77 277 1.0 3.0 0.00 0.00 0.00 48 1015.0
20210803173152 75 295 1.0 3.0 0.00 0.00 0.00 53 1015.3
20210803171616 74 315 1.0 3.0 0.00 0.00 0.00 53 1015.4
20210803170251 72 328 0.0 3.0 0.00 0.00 0.00 56 1015.6
20210803164618 72 35 0.0 2.0 0.00 0.00 0.00 56 1015.5
20210803163220 71 343 0.0 2.0 0.00 0.00 0.00 58 1015.6
20210803161620 70 82 1.0 2.0 0.00 0.00 0.00 60 1015.9
20210803160148 68 236 0.0 1.0 0.00 0.00 0.00 64 1016.1
20210803154609 67 55 0.0 1.0 0.00 0.00 0.00 68 1016.2
20210803153116 67 289 0.0 0.0 0.00 0.00 0.00 69 1016.4
20210803151553 65 25 0.0 0.0 0.00 0.00 0.00 74 1016.5
20210803150058 63 27 0.0 1.0 0.00 0.00 0.00 76 1016.6
20210803144539 61 84 0.0 0.0 0.00 0.00 0.00 81 1016.6
20210803143054 60 67 0.0 1.0 0.00 0.00 0.00 84 1016.6
20210803141525 58 101 0.0 1.0 0.00 0.00 0.00 86 1016.6
20210803140054 57 83 0.0 0.0 0.00 0.00 0.00 88 1016.5
20210803133030 0 0.0 0.0 0.00 0.00 0.00 1016.5
20210803131540 0 0.0 0.0 0.00 0.00 0.00 1016.4
20210803130030 0 0.0 0.0 0.00 0.00 0.00 1016.4
20210803124529 0 0.0 0.0 0.00 0.00 0.00 1016.2
20210803123225 0 0.0 0.0 0.00 0.00 0.00 1016.1
20210803121638 0 0.0 0.0 0.00 0.00 0.00 1016.1
20210803120206 0 0.0 0.0 0.00 0.00 0.00 1016.1
20210803114611 0 0.0 0.0 0.00 0.00 0.00 1015.9
20210803113142 57 89 0.0 0.0 0.00 0.00 0.00 88 1015.8
20210803111655 58 89 0.0 0.0 0.00 0.00 0.00 89 1015.9
20210803110139 58 146 0.0 0.0 0.00 0.01 0.00 88 1015.8
20210803104542 58 139 0.0 1.0 0.00 0.01 0.00 87 1015.8
20210803103108 59 103 0.0 0.0 0.00 0.01 0.00 86 1015.7
20210803101606 59 107 0.0 0.0 0.00 0.01 0.00 85 1015.7
20210803100037 60 124 0.0 0.0 0.00 0.01 0.00 85 1015.6
20210803094602 60 121 0.0 0.0 0.00 0.01 0.00 84 1015.6
20210803093128 60 120 0.0 0.0 0.00 0.01 0.00 84 1015.5
20210803091529 61 116 0.0 1.0 0.00 0.01 0.00 83 1015.4
20210803090042 62 78 0.0 0.0 0.00 0.01 0.00 80 1015.3
20210803084528 62 29 0.0 0.0 0.00 0.01 0.00 78 1015.4
20210803083023 63 19 0.0 0.0 0.00 0.01 0.00 78 1015.4
20210803081524 63 277 0.0 0.0 0.00 0.01 0.00 75 1015.4
20210803080031 64 77 0.0 1.0 0.00 0.01 0.00 78 1015.4
20210803074535 64 79 0.0 1.0 0.00 0.01 0.00 76 1015.4
20210803071506 65 105 0.0 0.0 0.00 0.01 0.00 75 1015.2
20210803070155 66 123 0.0 0.0 0.00 0.01 0.01 73 1015.1
20210803064633 66 129 0.0 0.0 0.00 0.01 0.01 72 1015.0
20210803063233 67 68 1.0 2.0 0.00 0.01 0.01 73 1015.1
20210803061840 68 113 0.0 1.0 0.00 0.01 0.01 72 1015.0
20210803060230 68 243 0.0 0.0 0.00 0.01 0.01 67 1015.1
20210803054712 69 243 0.0 1.0 0.00 0.01 0.01 66 1015.1
20210803053108 69 82 0.0 2.0 0.00 0.01 0.01 67 1015.1
20210803051616 70 257 0.0 1.0 0.00 0.01 0.01 65 1014.9
20210803050140 70 122 0.0 2.0 0.00 0.01 0.01 64 1015.0
20210803044730 71 138 0.0 0.0 0.00 0.01 0.01 60 1015.1
20210803043148 72 82 0.0 0.0 0.00 0.01 0.01 61 1015.0
20210803041732 74 122 0.0 1.0 0.00 0.01 0.01 54 1015.0
20210803040133 77 270 0.0 2.0 0.00 0.01 0.01 40 1015.0
20210803034655 77 283 0.0 0.0 0.00 0.01 0.01 43 1014.9
20210803033113 78 291 0.0 0.0 0.00 0.01 0.01 42 1014.7
20210803031610 80 292 0.0 1.0 0.00 0.01 0.01 41 1014.4
20210803030120 82 291 0.0 1.0 0.00 0.01 0.01 36 1014.2
20210803024748 84 291 0.0 1.0 0.00 0.01 0.01 33 1014.2
20210803023108 86 281 0.0 2.0 0.00 0.01 0.01 31 1014.0
20210803021717 88 283 1.0 3.0 0.00 0.01 0.01 29 1014.1
20210803020139 89 286 1.0 4.0 0.00 0.01 0.01 28 1014.0
20210803014618 89 280 1.0 4.0 0.00 0.01 0.01 27 1014.0
20210803013204 91 273 1.0 3.0 0.00 0.01 0.01 24 1013.9
20210803011645 92 296 1.0 4.0 0.00 0.01 0.01 22 1013.9
20210803010130 92 301 1.0 3.0 0.00 0.01 0.01 23 1013.9
20210803004624 93 8 0.0 3.0 0.00 0.01 0.01 24 1013.9
20210803003131 93 258 0.0 2.0 0.00 0.01 0.01 23 1013.8
20210803000126 93 292 2.0 5.0 0.00 0.01 0.01 26 1014.0
20210802234644 92 259 1.0 4.0 0.00 0.01 0.01 27 1014.3
20210802233200 92 269 2.0 4.0 0.00 0.01 0.01 28 1014.5
20210802231629 93 276 0.0 3.0 0.00 0.01 0.01 26 1014.5
20210802230033 92 255 1.0 3.0 0.00 0.01 0.01 26 1014.7
20210802224550 91 280 1.0 3.0 0.00 0.01 0.01 25 1014.9
20210802223022 92 292 1.0 4.0 0.00 0.01 0.01 26 1015.0
20210802221529 91 292 2.0 4.0 0.00 0.01 0.01 27 1015.2
20210802220050 91 295 1.0 3.0 0.00 0.01 0.01 27 1015.4
20210802214610 90 291 1.0 4.0 0.00 0.01 0.01 29 1015.7
20210802213012 90 296 1.0 6.0 0.00 0.01 0.01 30 1016.0
20210802211511 90 21 2.0 6.0 0.00 0.01 0.01 27 1016.2
20210802210004 88 32 1.0 6.0 0.00 0.01 0.01 30 1016.2